Flag for Germany Weather past 2 weeks in Greven, North Rhine-Westphalia, Germany

Now
43 °F

Rain. Low clouds.


Feels Like: 37 °F
Forecast: 38 / 44 °F
Wind: 9 mph from South

Location: Muenster / Osnabrueck

Current Time: Mar 31, 2015 at 6:11:29 AM

Latest Report: Mar 31, 2015 at 5:20 AM


Visibility: 4 mi

Pressure: 29.18 "Hg

Humidity: 100%

Dew point: 43 °F

Location of GrevenLocation

Historic Weather in Greven — Graph

°F

Greven temperature yesterday

Maximum temperature yesterday: 48 °F (at 3:20 PM)
Minimum temperature yesterday: 41 °F (at 6:50 AM)
Average temperature yesterday: 44 °F

Past Weeks' High & Low Weather Summary

 TemperatureHumidityPressure
High63 °F (Mar 17, 2:20 PM)100% (Mar 17, 4:50 AM)30.39 "Hg (Mar 17, 4:50 AM)
Low28 °F (Mar 23, 4:20 AM)42% (Mar 17, 2:50 PM)29.15 "Hg (Mar 29, 6:50 PM)
Average44 °F82%29.98 "Hg
* Reported Mar 16 3:20 AM — Mar 31 4:20 AM, Greven, Weather by CustomWeather, © 2015

Note: Actual official high and low records may vary slightly from our data, if they occured in-between our weather recording intervals... More about our weather records

Advertising

Greven weather history for previous 24 hours

 ConditionsComfort  
Time TempWeatherWind HumidityBarometerVisibility
4:20 AM
Tue, Mar 31
39 °FRain. Partly cloudy.13 mph100%29.27 "Hg4 mi
3:50 AM39 °FRain. Partly cloudy.13 mph100%29.33 "Hg4 mi
3:20 AM39 °FLight rain. Partly cloudy.12 mph100%29.36 "Hg6 mi
2:50 AM39 °FLight rain. Passing clouds.12 mph93%29.42 "Hg6 mi
2:20 AM39 °FLight rain. Passing clouds.12 mph93%29.47 "Hg6 mi
1:20 AM39 °FLight rain. Mostly cloudy.10 mph87%29.56 "HgN/A
12:50 AM41 °FLight rain. Partly cloudy.15 mph81%29.59 "HgN/A
12:20 AM43 °FPassing clouds.12 mph66%29.62 "HgN/A
11:50 PM
Mon, Mar 30
43 °FClear.8 mph61%29.65 "Hg10 mi
11:20 PM43 °FClear.7 mph61%29.71 "Hg10 mi
10:50 PM43 °FClear.7 mph61%29.74 "Hg10 mi
10:20 PM43 °FClear.8 mph61%29.74 "Hg10 mi
9:50 PM43 °FClear.7 mph61%29.74 "Hg10 mi
9:20 PM43 °FClear.6 mph61%29.77 "Hg10 mi
8:50 PM43 °FSunny.8 mph61%29.77 "Hg10 mi
8:20 PM41 °FSunny.12 mph66%29.77 "Hg10 mi
7:50 PM43 °FSunny.13 mph61%29.77 "Hg10 mi
7:20 PM45 °FPartly sunny.15 mph53%29.77 "HgN/A
6:50 PM45 °FBroken clouds.16 mph57%29.77 "HgN/A
6:20 PM46 °FScattered clouds.17 mph57%29.77 "HgN/A
5:50 PM46 °FScattered clouds.22 mph57%29.74 "HgN/A
5:20 PM48 °FScattered clouds.23 mph50%29.74 "HgN/A
4:50 PM46 °FScattered clouds.22 mph53%29.71 "HgN/A
4:20 PM48 °FScattered clouds.24 mph58%29.68 "HgN/A
3:50 PM48 °FScattered clouds.25 mph50%29.68 "HgN/A
3:20 PM48 °FScattered clouds.29 mph58%29.65 "HgN/A
2:50 PM46 °FScattered clouds.22 mph71%29.65 "HgN/A
2:20 PM43 °FSprinkles. Scattered clouds.23 mph76%29.65 "HgN/A
1:50 PM46 °FScattered clouds.20 mph82%29.62 "HgN/A
1:20 PM43 °FSprinkles. Partly sunny.15 mph81%29.59 "HgN/A
12:50 PM41 °FSprinkles. Broken clouds.26 mph87%29.59 "HgN/A
12:20 PM46 °FScattered showers. Broken clouds.25 mph71%29.56 "HgN/A
11:50 AM46 °FBroken clouds.16 mph71%29.56 "HgN/A
11:20 AM46 °FPartly sunny.23 mph66%29.53 "HgN/A
10:50 AM46 °FPartly sunny.23 mph66%29.50 "HgN/A
10:20 AM45 °FPartly sunny.22 mph66%29.50 "HgN/A
9:50 AM45 °FPartly sunny.23 mph66%29.47 "HgN/A
9:20 AM45 °FScattered clouds.22 mph66%29.47 "HgN/A
8:50 AM43 °FScattered clouds.21 mph76%29.45 "HgN/A
8:20 AM43 °FScattered clouds.20 mph76%29.45 "HgN/A
7:50 AM43 °FSprinkles. Passing clouds.18 mph76%29.42 "HgN/A
7:20 AM43 °FPartly cloudy.18 mph81%29.39 "HgN/A
6:50 AM41 °FSprinkles. Passing clouds.24 mph81%29.39 "Hg5 mi
6:20 AM43 °FPassing clouds.20 mph76%29.39 "HgN/A
Weather by CustomWeather, © 2015

See weather overviewHow to use our weather pages